{"data":{"norad_id":66281,"intl_designator":"2025-247S","name":"STARLINK-35727","alt_names":[],"object_type":"PAYLOAD","status":"ACTIVE","operator":null,"country":"US","launch_date":"2025-10-31","launch_site_code":"AFWTR","launch_vehicle":null,"mission":null,"orbit_class":"UNKNOWN","rcs_meters":null,"size_class":null,"mass_kg":null,"dimensions":null,"purposes":["comms"],"wikipedia_slug":null,"has_3d_model":false,"image_url":null,"decayed_at":null,"tle_current":{"epoch":"2026-09-20T13:37:21.933408Z","epoch_age_seconds":90868,"freshness":"FRESH","line1":"1 66281U 25247S   26263.56761497 -.00009697  00000+0 -27644-3 0  9995","line2":"2 66281  53.1601   3.1829 0000735  68.4464 291.6617 15.34376192 50919","mean_motion":15.34376192,"eccentricity":7.35e-5,"inclination_deg":53.1601,"raan_deg":3.1829,"arg_perigee_deg":68.4464,"mean_anomaly_deg":291.6617,"bstar":-0.00027644,"rev_number":5091,"period_min":93.84921426101,"perigee_km":462.27119655664,"apogee_km":463.27681047415,"semimajor_km":6840.9110035154,"source":"CELESTRAK","updated_at":"2026-09-21T09:00:35.870134Z"}}}